[[{"header":{"parameterUnit":"m.s-1","parameterCategory":1,"la1":30.2991,"la2":30.254,"lo1":-89.0895,"lo2":-89.0444,"dy":0.0017,"dx":0.0017,"nx":28,"ny":28,"refTime":"2025-05-25T03:00:00:Z","depth":0,"parameterNumber":2,"parameterNumberName":"U-component_of_WINDS"},"data":[0,0,0,0,0,0,0,0,0,0,0,0,0,0,0,0,0,0,0,0,0,0,0,0,0,0,0,0,0,0,0,0,0,0,0,0,0,0,0,0,0,0,0,0,0,0,0,0,0,0,0,0,0,0,0,0,0,0,2.2938,2.2938,0,2.2963,2.2964,2.2964,2.2935,2.2933,2.2932,2.2931,2.2954,2.2956,2.2958,0,0,0,0,0,0,0,0,0,0,0,0,0,2.286,2.2861,2.2938,2.2938,2.2938,2.2963,2.2964,2.2964,2.2935,2.2933,2.2932,2.2931,2.2954,2.2956,2.2958,0,0,0,0,0,0,0,0,0,0,0,0,0,2.289,2.2862,2.2938,2.2927,2.2926,2.2963,2.2964,2.2964,2.2935,2.2933,2.2932,2.293,2.2953,2.2956,2.2958,2.3006,0,0,2.2966,2.2967,0,0,0,0,0,0,0,0,2.2888,2.2893,2.2928,2.2928,2.2927,2.2944,2.2945,2.2978,2.2935,2.2932,2.2931,2.2929,2.2952,2.2955,2.2963,2.3007,2.3008,2.2966,2.2967,2.2968,2.2969,0,0,0,0,0,0,0,2.2886,2.2892,2.2948,2.2929,2.2928,2.2919,2.2922,2.2951,2.2951,2.2932,2.293,2.2933,2.2951,2.2961,2.2963,2.3009,2.2966,2.2968,2.2969,2.297,2.3092,2.3094,0,0,0,0,0,0,2.2886,2.289,2.2947,2.2949,2.2903,2.2922,2.2925,2.294,2.295,2.295,2.2935,2.2932,2.2957,2.296,2.2964,2.302,2.2968,2.2971,2.2972,2.3091,2.3093,2.3095,0,0,0,0,0,0,2.2884,2.2891,2.2946,2.2919,2.2925,2.2925,2.2943,2.2942,2.2951,2.2953,2.2952,2.2944,2.2956,2.296,2.2996,2.302,2.2972,2.2974,2.3088,2.3091,2.3094,2.3132,0,0,0,0,0,0,2.2882,2.2891,2.291,2.292,2.2927,2.2979,2.2944,2.2943,2.2955,2.2952,2.2961,2.2961,2.2955,2.2992,2.2998,2.3022,2.2976,2.3086,2.309,2.3093,2.3129,2.3136,2.3142,0,0,0,0,0,2.288,2.292,2.2911,2.2918,2.2951,2.298,2.2984,2.2977,2.2958,2.2976,2.2977,2.2961,2.3017,2.2996,2.3003,2.3028,2.3085,2.3089,2.3093,2.3126,2.3134,2.3142,0,0,0,0,0,0,2.2912,2.2921,2.2911,2.2956,2.2968,2.2975,2.2998,2.2987,2.3003,2.2999,2.2988,2.2991,2.3028,2.3032,2.3009,2.3074,2.3047,2.3053,2.307,2.3079,2.3085,2.3083,2.2978,0,0,0,0,0,2.2924,2.2948,2.2954,2.2993,2.2999,2.2998,2.301,2.3004,2.3015,2.302,2.3023,2.3034,2.3053,2.3067,2.3085,2.313,2.313,2.315,2.3157,2.3163,2.3167,2.3189,2.3197,2.3108,2.3108,2.3108,0,0,2.295,2.2957,2.2973,2.2999,2.3008,2.3031,2.3002,2.3029,2.3046,2.3023,2.3056,2.306,2.3071,2.3111,2.3129,2.3115,2.3192,2.3168,2.3172,2.3173,2.3194,2.3202,2.321,2.311,2.311,2.3109,0,0,2.3008,2.3017,2.3049,2.3059,2.3072,2.3071,2.3079,2.3088,2.3089,2.3123,2.3107,2.3126,2.3161,2.3169,2.3178,2.324,2.3225,2.3246,2.328,2.3302,2.3309,2.3315,2.3335,2.3343,2.3251,2.3251,2.3251,0,2.3037,2.3073,2.3067,2.3095,2.3106,2.3089,2.312,2.3129,2.3147,2.3155,2.314,2.3183,2.3189,2.323,2.3245,2.3254,2.3261,2.3244,2.3308,2.3315,2.332,2.3339,2.3347,2.3253,2.3253,2.3252,2.3252,0,2.3108,2.3133,2.3158,2.3177,2.3191,2.3221,2.3218,2.3233,2.3226,2.3226,2.326,2.3267,2.3286,2.3296,2.3288,2.3335,2.3326,2.331,2.3282,2.3331,2.3349,2.3356,2.3256,2.3256,2.3255,2.3254,0,0,2.3185,2.3201,2.321,2.3218,2.3232,2.325,2.3279,2.3299,2.3311,2.3325,2.3347,2.3377,2.3362,2.3372,2.3366,2.3385,2.3432,2.3367,2.3367,2.3377,2.3482,2.3492,2.3501,2.3423,2.3424,2.3425,2.348,0,2.3242,2.3292,2.3288,2.3335,2.3357,2.3341,2.3366,2.3376,2.3377,2.3395,2.3396,2.3417,2.3397,2.3402,2.3421,2.3422,2.3452,2.3418,2.3442,2.3443,2.3437,2.351,2.3522,2.3573,2.3487,2.3488,2.3489,0,2.3315,2.3332,2.3381,2.3391,2.34,2.3422,2.3439,2.3458,2.3469,2.3468,2.348,2.347,2.3497,2.3471,2.3507,2.3484,2.3494,2.3496,2.3498,2.3498,2.3467,2.3511,2.3589,2.3596,2.35,2.35,2.3499,0,2.3364,2.3399,2.3433,2.344,2.3453,2.3469,2.3475,2.3484,2.3496,2.3511,2.3518,2.3536,2.3545,2.3559,2.3554,2.3535,2.3591,2.3564,2.3589,2.3589,2.36,2.3599,2.3679,2.361,2.361,2.3609,2.3609,0,2.3426,2.3457,2.3455,2.3475,2.3509,2.3503,2.3536,2.3539,2.3548,2.3568,2.3556,2.3574,2.3568,2.3586,2.3582,2.3612,2.3617,2.3615,2.3614,2.3615,2.3615,2.362,2.3615,2.3611,2.3611,2.3611,2.361,0,2.3486,2.3486,2.3521,2.3531,2.3534,2.3558,2.3565,2.3584,2.3585,2.361,2.3616,2.3616,2.3637,2.3634,2.3657,2.3654,2.3691,2.3686,2.3687,2.3685,2.371,2.3707,2.3794,2.3804,2.373,2.3731,2.3732,0,2.3524,2.3547,2.356,2.3573,2.358,2.3601,2.3613,2.3609,2.3622,2.3636,2.3653,2.3673,2.3688,2.3722,2.3723,2.3741,2.3735,2.3764,2.3737,2.3738,2.3733,2.373,2.3732,2.3769,2.377,2.377,2.3771,0,2.3593,2.3592,2.361,2.3629,2.3645,2.3659,2.3672,2.3683,2.3679,2.3695,2.3716,2.3728,2.3752,2.3771,2.3788,2.3792,2.378,2.378,2.3786,2.3787,2.3786,2.3785,2.3699,2.3777,2.3777,2.3776,2.3776,2.3776,2.3641,2.3661,2.3672,2.3693,2.3703,2.3715,2.3733,2.3736,2.3755,2.3774,2.377,2.3794,2.3804,2.3825,2.3832,2.3849,2.3838,2.3848,2.385,2.3852,2.3854,2.3785,2.3852,2.3852,2.3852,2.3852,2.3852,0,2.3707,2.3714,2.3734,2.3752,2.3769,2.3758,2.3772,2.3786,2.3807,2.3818,2.3834,2.3858,2.3877,2.3881,2.3898,2.3912,2.3907,2.3916,2.3914,2.3915,2.3864,2.3856,2.392,2.392,2.392,2.392,2.392,2.392,2.3743,2.3774,2.3775,2.3811,2.3817,2.3841,2.385,2.3861,2.387,2.3898,2.3913,2.3916,2.3924,2.3942,2.3958,2.3959,2.3965,2.3976,2.3974,2.3926,2.3919,2.3912,2.3904,2.3978,2.3978,2.4024,2.4024,2.4024]},{"header":{"parameterUnit":"m.s-1","parameterCategory":1,"la1":30.2991,"la2":30.254,"lo1":-89.0895,"lo2":-89.0444,"dy":0.0017,"dx":0.0017,"nx":28,"ny":28,"refTime":"2025-05-25T03:00:00:Z","depth":0,"parameterNumber":3,"parameterNumberName":"V-component_of_WINDS"},"data":[0,0,0,0,0,0,0,0,0,0,0,0,0,0,0,0,0,0,0,0,0,0,0,0,0,0,0,0,0,0,0,0,0,0,0,0,0,0,0,0,0,0,0,0,0,0,0,0,0,0,0,0,0,0,0,0,0,0,3.6017,3.6018,0,3.6076,3.6076,3.6077,3.6044,3.6043,3.6041,3.604,3.6097,3.61,3.6103,0,0,0,0,0,0,0,0,0,0,0,0,0,3.5873,3.5876,3.6017,3.6018,3.6018,3.6076,3.6076,3.6077,3.6045,3.6043,3.6041,3.6039,3.6096,3.61,3.6103,0,0,0,0,0,0,0,0,0,0,0,0,0,3.5934,3.5877,3.6017,3.6009,3.6009,3.6075,3.6076,3.6077,3.6045,3.6043,3.604,3.6038,3.6095,3.6099,3.6104,3.618,0,0,3.6118,3.612,0,0,0,0,0,0,0,0,3.593,3.5939,3.601,3.601,3.601,3.605,3.6047,3.6112,3.6046,3.6031,3.604,3.6037,3.6083,3.6089,3.6105,3.6183,3.6185,3.6118,3.6121,3.6123,3.6124,0,0,0,0,0,0,0,3.5926,3.5936,3.604,3.6011,3.6011,3.6002,3.6008,3.6059,3.607,3.6032,3.603,3.6038,3.6083,3.6101,3.6106,3.6186,3.6118,3.6122,3.6125,3.6127,3.6329,3.6331,0,0,0,0,0,0,3.5923,3.5933,3.6038,3.6042,3.5963,3.6006,3.6013,3.604,3.6069,3.6072,3.604,3.6036,3.6094,3.6101,3.6108,3.6199,3.6123,3.6127,3.613,3.6326,3.6329,3.6332,0,0,0,0,0,0,3.592,3.5933,3.6036,3.5987,3.5999,3.6011,3.6042,3.6042,3.606,3.6075,3.6077,3.6056,3.6092,3.6102,3.6162,3.62,3.6129,3.6133,3.6323,3.6327,3.6331,3.6381,0,0,0,0,0,0,3.5916,3.5932,3.5962,3.5988,3.6002,3.6091,3.6044,3.6045,3.6068,3.6064,3.6091,3.6093,3.6091,3.6156,3.6167,3.6205,3.6137,3.6319,3.6325,3.6329,3.6376,3.6387,3.6395,0,0,0,0,0,3.5911,3.5973,3.5964,3.5976,3.604,3.6093,3.6101,3.6099,3.6071,3.6101,3.611,3.6092,3.6194,3.6162,3.6175,3.6215,3.6317,3.6323,3.6329,3.6372,3.6385,3.6395,0,0,0,0,0,0,3.5951,3.5977,3.5966,3.6039,3.6064,3.6087,3.6125,3.6112,3.6144,3.6139,3.6134,3.614,3.6203,3.6215,3.6179,3.629,3.6251,3.626,3.628,3.6292,3.6301,3.6297,3.6141,0,0,0,0,0,3.5968,3.601,3.603,3.6092,3.6105,3.6113,3.6136,3.6132,3.6157,3.6167,3.6181,3.6206,3.6243,3.6268,3.6304,3.6378,3.6383,3.6411,3.6421,3.6428,3.6436,3.6475,3.6488,3.6351,3.6351,3.6351,0,0,3.6004,3.6024,3.605,3.6101,3.612,3.6162,3.6122,3.6169,3.6199,3.6174,3.6233,3.6244,3.627,3.6338,3.6369,3.635,3.6475,3.6436,3.6442,3.6445,3.6483,3.6496,3.6507,3.6355,3.6355,3.6354,0,0,3.6092,3.6111,3.6165,3.6185,3.6214,3.6218,3.6231,3.6256,3.6263,3.6322,3.6303,3.6339,3.6404,3.6424,3.6443,3.6537,3.652,3.6548,3.6598,3.6636,3.6647,3.6656,3.669,3.6701,3.6556,3.6556,3.6556,0,3.6133,3.6197,3.6194,3.6242,3.6264,3.6244,3.6297,3.6316,3.6355,3.6371,3.6349,3.643,3.6446,3.6518,3.6541,3.6557,3.657,3.6545,3.6646,3.6655,3.6664,3.6696,3.6708,3.6559,3.6558,3.6558,3.6558,0,3.6245,3.629,3.6329,3.6369,3.6395,3.6446,3.6449,3.6476,3.647,3.6476,3.6536,3.6555,3.6593,3.661,3.6604,3.6681,3.6668,3.6646,3.6608,3.668,3.671,3.6722,3.6563,3.6562,3.6561,3.6561,0,0,3.636,3.6397,3.6411,3.6428,3.6459,3.6493,3.6542,3.658,3.6603,3.663,3.6671,3.6726,3.6706,3.6727,3.6722,3.6756,3.6829,3.673,3.673,3.6748,3.6914,3.693,3.6944,3.6818,3.682,3.6822,3.6912,0,3.6449,3.6536,3.6535,3.6615,3.6655,3.6636,3.6678,3.6701,3.6708,3.6742,3.6749,3.6789,3.6759,3.6772,3.6804,3.6813,3.6862,3.6806,3.6855,3.6857,3.6849,3.696,3.6977,3.7061,3.6923,3.6925,3.6926,0,3.6565,3.6597,3.6682,3.6706,3.6723,3.6761,3.6796,3.6829,3.6854,3.6856,3.688,3.687,3.6918,3.6878,3.6944,3.6907,3.6926,3.6933,3.6936,3.6941,3.6896,3.6967,3.7087,3.71,3.6945,3.6943,3.6942,0,3.664,3.6704,3.6763,3.6778,3.6808,3.6835,3.6848,3.6871,3.6894,3.6924,3.6938,3.6973,3.6992,3.7019,3.7018,3.6989,3.7085,3.7045,3.7088,3.7088,3.7109,3.7108,3.7235,3.7122,3.7122,3.7122,3.7121,0,3.674,3.6793,3.6797,3.6833,3.6891,3.6888,3.6944,3.6955,3.6975,3.7012,3.6996,3.7031,3.7028,3.7063,3.7062,3.7117,3.7126,3.7129,3.7128,3.713,3.713,3.7143,3.7137,3.7125,3.7124,3.7124,3.7123,0,3.6834,3.6839,3.6902,3.6925,3.6931,3.6973,3.6992,3.7025,3.7031,3.7077,3.7088,3.7096,3.7136,3.7138,3.7184,3.7184,3.725,3.7243,3.7242,3.7241,3.7284,3.728,3.7423,3.7442,3.7317,3.7318,3.7319,0,3.6898,3.6938,3.6965,3.6989,3.7004,3.7043,3.7066,3.7064,3.7089,3.7119,3.7149,3.7188,3.7219,3.7284,3.7293,3.7328,3.7321,3.7369,3.7326,3.7327,3.7322,3.732,3.7323,3.7377,3.7379,3.738,3.7381,0,3.701,3.701,3.7045,3.7081,3.711,3.7138,3.7164,3.7184,3.7184,3.7213,3.7254,3.7278,3.7325,3.7363,3.7397,3.7409,3.7395,3.7394,3.7406,3.7409,3.7407,3.7408,3.7265,3.7391,3.739,3.7389,3.7389,3.7388,3.709,3.7125,3.7149,3.7188,3.7208,3.7232,3.7265,3.7274,3.7309,3.7347,3.7343,3.7389,3.7411,3.7455,3.7471,3.7505,3.7489,3.7506,3.751,3.7515,3.7519,3.7401,3.7511,3.7511,3.7511,3.7511,3.751,0,3.7201,3.7216,3.7252,3.7289,3.732,3.7304,3.7332,3.7358,3.7399,3.7421,3.7452,3.7499,3.7536,3.7548,3.7584,3.7609,3.7603,3.7618,3.7617,3.762,3.7532,3.7518,3.7622,3.7622,3.7622,3.7622,3.7622,3.7622,3.7263,3.732,3.7323,3.7389,3.7403,3.7448,3.7465,3.7487,3.7505,3.7559,3.7589,3.7597,3.7615,3.7652,3.7685,3.7688,3.7701,3.7719,3.7719,3.7637,3.7626,3.7615,3.7602,3.7722,3.7722,3.7804,3.7804,3.7805]}]]